Regional Weather Roundup
Issued by NWS Albany, NY

Home | Current Version | Previous Version | Graphics & Text | Print | Product List | Glossary On
Versions: 1 2 3 4 5 6 7 8 9 10 11 12 13 14 15 16 17 18 19 20 21 22 23 24 25 26 27 28 29 30 31 32 33 34 35 36 37 38 39 40 41 42 43 44 45 46 47 48 49 50
255
ASUS41 KALY 170010
RWRALY

NEW YORK STATE HOURLY WEATHER ROUNDUP
NATIONAL WEATHER SERVICE ALBANY NY
700 PM EST MON JAN 16 2017

NOTE: "FAIR" INDICATES FEW OR NO CLOUDS BELOW 12,000 FEET WITH NO
SIGNIFICANT WEATHER AND/OR NO OBSTRUCTIONS TO VISIBILITY.

NYZ032-033-038>043-046>054-057>066-NYZ062>081-082-084-170100-
EAST


CITY           SKY/WX    TMP DP  RH WIND       PRES   REMARKS
ALBANY         CLOUDY    30  19  63 CALM      30.29F
GLENS FALLS    CLOUDY    32  19  58 S6        30.27S WCI  26
POUGHKEEPSIE   CLOUDY    31  22  69 CALM      30.30F
NEWBURGH       MOCLDY    36  23  60 W9        30.31F WCI  29
MONTGOMERY     PTCLDY    36  24  62 SW9       30.29S WCI  29
WHITE PLAINS   PTCLDY    37  22  54 SW5       30.31S WCI  33
ISLIP          CLOUDY    33  28  81 SW5       30.34F WCI  29
NEW YORK CITY  MOCLDY    43  25  49 SW7       30.34F
CENTRAL PARK   CLOUDY    41  24  51 W5        30.36S
$$

NYZ005>009-017-018-044>046-055-056-170100-
CENTRAL


CITY           SKY/WX    TMP DP  RH WIND       PRES   REMARKS
FULTON         PTCLDY    31  22  69 CALM      30.27F
SYRACUSE       CLOUDY    32  20  61 E3        30.27F
ROME           CLOUDY    28  23  81 CALM      30.30S
ELMIRA         CLOUDY    34  24  67 CALM      30.26S
BINGHAMTON     CLOUDY    33  23  66 S6        30.23F WCI  28
MONTICELLO     CLEAR     32  21  64 W5        30.28R WCI  27
$$

NYZ026>034-041>043-087-170100-
NORTH


CITY           SKY/WX    TMP DP  RH WIND       PRES   REMARKS
WATERTOWN      CLOUDY    32  25  75 S5        30.26F WCI  27
FORT DRUM      NOT AVBL
OGDENSBURG     FAIR      33  28  83 SW13G22   30.21F WCI  23
MASSENA        CLEAR     32  26  78 SW13      30.22R WCI  22
SARANAC LAKE   CLOUDY    28  13  53 SW13      30.16S WCI  17
PLATTSBURGH    CLEAR     35  15  44 VRB3      30.20R
$$

NYZ001>004-010>016-019>021-085-170100-
WEST


CITY           SKY/WX    TMP DP  RH WIND       PRES   REMARKS
NIAGARA FALLS  CLOUDY    37  12  35 SW5       30.26S WCI  33
BUFFALO        CLOUDY    34  20  56 S6        30.25F WCI  29
DUNKIRK        CLOUDY    33  27  78 SW3       30.27F
JAMESTOWN      CLOUDY    34  23  64 S3        30.22S
WELLSVILLE     LGT RAIN  38  16  40 NE3       30.24S
ROCHESTER      CLOUDY    35  21  56 CALM      30.27S
PENN YAN       PTCLDY    33  22  63 CALM      30.25S
$$

             KEY
       WCI = WIND CHILL INDEX
       VSB = VISIBILITY
       HX  = HEAT INDEX
$$




USA.gov is the U.S. government's official web portal to all federal, state and local government web resources and services.